Regional Weather Roundup
Issued by NWS

Home | Current Version | Previous Version | Graphics & Text | Print | Product List | Glossary On
Versions: 1 2 3 4 5 6 7 8 9 10 11 12 13 14 15 16 17 18 19 20 21 22 23 24 25 26 27 28 29 30 31 32 33 34 35 36 37 38 39 40 41 42 43 44 45 46 47 48 49 50
000
ASUS43 KIND 052209
RWRIN

WEATHER ROUNDUP FOR INDIANA
NATIONAL WEATHER SERVICE INDIANAPOLIS IN
600 PM EDT TUE MAY 05 2015

NOTE: "FAIR" INDICATES FEW OR NO CLOUDS BELOW 12,000 FEET WITH NO
SIGNIFICANT WEATHER AND/OR OBSTRUCTIONS TO VISIBILITY.

* - STATION DOES NOT REPORT WEATHER SUCH AS PRECIPITATION OR FOG.

+ - STATION NOT QUALITY CONTROLLED BY THE NATIONAL WEATHER SERVICE.
    USE DATA WITH CAUTION...ESPECIALLY DEWPOINT AND RELATIVE
    HUMIDITY OBSERVATIONS.

INZ001>003-010>013-019-020-052300-
NORTHWEST INDIANA

CITY           SKY/WX    TMP DP  RH WIND       PRES   REMARKS
GARY /AIRPORT/ CLOUDY    54 N/A N/A N6        30.19F FOG
KNOX *+        MOSUNNY   70  55  60 NE12      30.15S
LA PORTE +     PTSUNNY   66  64  90 E9        30.18R
MICHIGAN CITY+ CLOUDY    61  61 100 NE7       30.19R
MONTICELLO +   PTSUNNY   81  61  49 SW8       30.11F
VALPARAISO     PTSUNNY   71  64  78 NE8       30.17S

$$

LMZ046-743>745-052300-
SOUTHERN LAKE MICHIGAN

STATION/POSITION TIME  TEMP    WIND        PRES    WAVE
                       AIR SEA DIR/SP/G            HT
                 (UTC) (F)     (DEG/KT/KT) (MB)    (FT)
BURNS HARBOR     2200   52      40/  6/  7 1022.4S
MICHIGAN CITY    2200   54      40/ 11/ 12   N/A
5NW MICH CITY    2200   51 50   50/ 10/ 14   N/A     2

$$

INZ004-005-014>016-021>024-052300-
NORTH CENTRAL INDIANA

CITY           SKY/WX    TMP DP  RH WIND       PRES   REMARKS
ELKHART        CLOUDY    57  54  88 NE8       30.21F FOG
GOSHEN         CLOUDY    61  58  90 NE12      30.19S FOG
LOGANSPORT +   PTSUNNY   79  52  38 SW7       30.14S
PERU/GRISSOM   MOSUNNY   81  56  42 SW13      30.12F
ROCHESTER +    PTSUNNY   72  70  94 NE6       30.15F
SOUTH BEND     CLOUDY    60  56  86 NE7       30.20S
WARSAW +       PTSUNNY   68  64  88 E9        30.17S FOG

$$

INZ006>009-017-018-025>027-052300-
NORTHEAST INDIANA

CITY           SKY/WX    TMP DP  RH WIND       PRES   REMARKS
ANGOLA *+      CLOUDY    57  45  62 NE6       30.21S
AUBURN +       LGT RAIN  61  57  88 NE6       30.21R
FORT WAYNE     PTSUNNY   79  56  45 W13       30.17R
HUNTINGTON +   MOSUNNY   80  55  41 SW8       30.15S

$$

INZ028-029-035-036-043>045-051>053-052300-
WEST CENTRAL INDIANA

CITY           SKY/WX    TMP DP  RH WIND       PRES   REMARKS
CRAWFORDSVL +  MOSUNNY   81  40  23 SW12G22   30.14F
GREENCASTLE +  PTSUNNY   79  45  29 W6        30.15F
LAFAYETTE      MOSUNNY   79  52  38 S6        30.11F
TERRE HAUTE    PTSUNNY   83  53  35 S10       30.13F

$$

INZ030>032-037>040-046>048-054>057-064-065-052300-
CENTRAL INDIANA

CITY           SKY/WX    TMP DP  RH WIND       PRES   REMARKS
CP ATTERBURY + SUNNY     81  50  34 W7        30.16F
FRANKFORT +    SUNNY     82  53  35 S8        30.15F
GREENWOOD *+   SUNNY     82  48  30 SW8       30.16F
INDIANAPOLIS   MOSUNNY   81  51  35 SW13      30.14F
-EAGLE CREEK   MOSUNNY   80  50  34 SW8G17    30.14F
KOKOMO *+      MOSUNNY   82  55  39 SW16G22   30.13F
MARION +       MOSUNNY   80  51  35 SW10      30.16S
MT COMFORT *+  SUNNY     82  30  15 SW13      30.16F
SHELBYVILLE    MOSUNNY   83  54  36 SW13      30.15F
ZIONSVILLE +   MOSUNNY   82  47  28 SW12G17   30.15F

$$

INZ033-034-041-042-049-050-058-059-052300-
EAST CENTRAL INDIANA

CITY           SKY/WX    TMP DP  RH WIND       PRES   REMARKS
MUNCIE         MOSUNNY   81  52  36 SW10G17   30.15F

$$

INZ060-061-067>069-081>083-085>088-052300-
SOUTHWEST INDIANA

CITY           SKY/WX    TMP DP  RH WIND       PRES   REMARKS
EVANSVILLE     MOSUNNY   84  52  33 S10       30.15F
HUNTINGBURG *+ SUNNY     82  54  36 S8        30.17F
WASHINGTON +   MOSUNNY   82  46  28 S10G16    30.15S

$$

INZ062-063-066-070>080-084-089>092-052300-
SOUTH CENTRAL AND SOUTHEAST INDIANA

CITY           SKY/WX    TMP DP  RH WIND       PRES   REMARKS
BLOOMINGTON    MOSUNNY   84  51  31 SW7G18    30.16F
MADISON *+     SUNNY     81  48  32 S5        30.20F
NORTH VERNON + MOSUNNY   79  52  38 SW9       30.18F
SEYMOUR +      SUNNY     84  55  37 SW9       30.16F

$$




USA.gov is the U.S. government's official web portal to all federal, state and local government web resources and services.